Location: Aciu?a
(46.2833°N, 22.4500°E)
Time: 09:35:13
(UTC+00:00)

Cosmos 1455 - Pass Details

Date: 07 June 2022
Orbit: 492 x 514 km, 82.5° (Epoch: 02 July)

Event Time Altitude Azimuth Distance (km) Brightness Sun altitude
Rises 22:18:54 0° 357° (N) 2,588 7.4 -20.9°
Reaches altitude 10° 22:21:07 10° 6° (N) 1,703 6.0 -20.9°
Maximum altitude 22:24:38 39° 77° (ENE) 756 3.0 -20.9°
Enters shadow 22:25:09 37° 98° (E) 788 3.0 -20.9°
